Location: Albany
(35.0000°S, 118.0000°E)
Time: 11:37:25
(UTC-04:00)

ISS - All Passes

Search period start: 22 July 2014 00:00
Search period end: 01 August 2014 00:00
Orbit: 412 x 420 km, 51.6° (Epoch: 22 July)

Date Brightness Start Highest point End Pass type
(mag) Time Alt. Az. Time Alt. Az. Time Alt. Az.
22 Jul - 00:35:06 10° N 00:37:54 24° NE 00:40:42 10° ESE daylight
22 Jul - 02:11:35 10° W 02:14:33 28° SW 02:17:32 10° SSE daylight
22 Jul - 07:07:19 10° S 07:08:44 12° SSE 07:10:09 10° SE visible
22 Jul - 08:42:34 10° SW 08:45:58 79° SE 08:49:19 10° NE night (unlit)
22 Jul - 23:47:55 10° NNE 23:49:35 13° NE 23:51:15 10° E daylight
23 Jul - 01:22:42 10° WNW 01:25:59 49° SW 01:29:17 10° SE daylight
23 Jul - 07:54:12 10° SW 07:57:27 41° SE 08:00:39 10° ENE visible
23 Jul - 09:31:50 10° W 09:33:54 15° NW 09:35:58 10° NNW night (unlit)
24 Jul - 00:34:07 10° NW 00:37:29 87° NE 00:40:53 10° SE daylight
24 Jul - 02:12:54 10° WSW 02:14:38 13° SSW 02:16:22 10° S daylight
24 Jul - 07:05:59 10° SSW 07:08:51 25° SE 07:11:42 10° E visible
24 Jul - 08:42:37 10° WSW 08:45:34 29° NW 08:48:31 10° NNE night (unlit)
24 Jul - 23:45:51 10° NNW 23:49:03 43° NE 23:52:17 10° ESE daylight
25 Jul - 01:23:24 10° W 01:25:56 19° SSW 01:28:29 10° SSE daylight
25 Jul - 06:17:56 10° SSW 06:20:11 16° SSE 06:22:26 10° ESE visible
25 Jul - 07:53:51 10° SW 07:57:11 57° NW 08:00:28 10° NE visible
25 Jul - 22:57:59 10° N 23:00:41 22° NE 23:03:23 10° ESE daylight
26 Jul - 00:34:16 10° W 00:37:18 30° SW 00:40:21 10° SSE daylight
26 Jul - 05:30:14 10° S 05:31:27 12° SSE 05:32:40 10° SE daylight
26 Jul - 07:05:20 10° SW 07:08:43 72° SE 07:12:03 10° NE visible
26 Jul - 22:11:00 10° NNE 22:12:22 12° NE 22:13:43 10° ENE daylight
26 Jul - 23:45:25 10° WNW 23:48:43 53° SW 23:52:04 10° SE daylight
27 Jul - 06:16:59 10° SSW 06:20:11 38° SE 06:23:20 10° ENE visible
27 Jul - 07:54:25 10° W 07:56:41 17° NW 07:58:55 10° N visible
27 Jul - 22:56:51 10° NW 23:00:13 79° NE 23:03:37 10° SE daylight
28 Jul - 00:35:26 10° WSW 00:37:20 14° SSW 00:39:14 10° S daylight
28 Jul - 05:28:46 10° SSW 05:31:34 23° SSE 05:34:20 10° E daylight
28 Jul - 07:05:17 10° WSW 07:08:19 31° NW 07:11:20 10° NNE visible
28 Jul - 22:08:37 10° NNW 22:11:47 38° NE 22:14:58 10° ESE daylight
28 Jul - 23:45:59 10° W 23:48:37 21° SSW 23:51:16 10° SSE daylight
29 Jul - 04:40:44 10° S 04:42:53 16° SSE 04:45:00 10° ESE daylight
29 Jul - 06:16:33 10° SW 06:19:54 64° NW 06:23:13 10° NE visible
29 Jul - 21:20:50 10° N 21:23:24 20° NE 21:26:00 10° E daylight
29 Jul - 22:56:53 10° WNW 22:59:59 33° SW 23:03:06 10° SSE daylight
30 Jul - 03:53:09 10° S 03:54:07 11° SSE 03:55:05 10° SE daylight
30 Jul - 05:28:03 10° SW 05:31:25 65° SE 05:34:45 10° NE daylight
30 Jul - 20:34:10 10° NE 20:35:05 11° NE 20:36:00 10° ENE daylight
30 Jul - 22:08:04 10° WNW 22:11:25 59° SW 22:14:47 10° SE daylight
30 Jul - 23:48:03 10° SW 23:48:45 11° SSW 23:49:27 10° S daylight
31 Jul - 04:39:42 10° SSW 04:42:51 35° SE 04:45:58 10° ENE daylight
31 Jul - 06:16:58 10° W 06:19:23 19° NW 06:21:48 10° N visible
31 Jul - 21:19:33 10° NW 21:22:54 71° NE 21:26:18 10° SE daylight
31 Jul - 22:57:56 10° WSW 22:59:58 15° SSW 23:02:01 10° S daylight
